Weather Service Report


094 
ASUS41 KBOX 011710
RWRBOX

REGIONAL WEATHER ROUNDUP
NATIONAL WEATHER SERVICE TAUNTON MA
100 PM EDT FRI AUG 01 2014

NOTE:  "FAIR" INDICATES FEW OR NO CLOUDS BELOW 12,000 FEET WITH NO 
SIGNIFICANT WEATHER AND/OR OBSTRUCTIONS TO VISIBILITY.  THE FOLLOWING 
OBSERVATION LOCATIONS DO NOT REPORT PRESENT WEATHER...PROVINCETOWN...
SMITHFIELD...BLOCK ISLAND...KEENE...AND OXFORD.

MAZALL-011800-
EASTERN MASSACHUSETTS
  
CITY           SKY/WX    TMP DP  RH WIND       PRES   REMARKS
BOSTON         PTSUNNY   75  66  73 E15       30.21F                  
BEVERLY        PTSUNNY   76  65  68 SE9       30.21S                  
LAWRENCE       PTSUNNY   83  65  54 SE7       30.22S                  
BEDFORD        PTSUNNY   83  65  54 VRB5      30.19F                  
BLUE HILL        N/A     82  65  56 VRB7      30.22F                  
NORWOOD        PTSUNNY   83  64  52 S8        30.20F                  
MARSHFIELD     PTSUNNY   75  68  78 SE9       30.24S                  
PLYMOUTH       PTSUNNY   80  66  62 S8        30.23S                  
TAUNTON        PTSUNNY   82  68  62 SE7       30.22S                  
NEW BEDFORD    PTSUNNY   79  68  69 S13       30.23S                  
$$

MAZALL-011800-
CAPE COD AND THE ISLANDS
  
CITY           SKY/WX    TMP DP  RH WIND       PRES   REMARKS
FALMOUTH       MOSUNNY   79  68  69 S10       30.25S                  
HYANNIS        MOSUNNY   78  65  63 S10       30.24S                  
CHATHAM        MOSUNNY   79  64  60 S8        30.27S                  
PROVINCETOWN   PTSUNNY   81  70  69 S13       30.24F                  
NANTUCKET      MOSUNNY   71  62  73 S9        30.26S                  
MARTHAS VNYRD  MOSUNNY   76  66  71 S13       30.26R                  
$$
 
MAZALL-011800-
CENTRAL AND WESTERN MASSACHUSETTS
  
CITY           SKY/WX    TMP DP  RH WIND       PRES   REMARKS
WORCESTER      MOSUNNY   78  62  57 S7        30.24S                  
FITCHBURG      MOSUNNY   83  62  49 VRB6      30.21F                  
ORANGE         PTSUNNY   81  63  54 S9        30.20F                  
SPRINGFIELD    MOSUNNY   83  65  54 SW12      30.19F                  
WESTFIELD      MOSUNNY   83  65  54 S12       30.18F THUNDER          
NORTH ADAMS    PTSUNNY   79  61  53 VRB6      30.20S                  
PITTSFIELD     PTSUNNY   78  63  59 SW7       30.21F                  
$$
 
RIZALL-011800-
RHODE ISLAND
  
CITY           SKY/WX    TMP DP  RH WIND       PRES   REMARKS
PROVIDENCE     PTSUNNY   80  68  66 SE15      30.23S                  
NEWPORT        PTSUNNY   76  68  76 S12       30.24S                  
BLOCK ISLAND   CLOUDY    75  68  78 S14       30.25S                  
SMITHFIELD     MOSUNNY   81  64  57 S7        30.23S                  
WESTERLY       PTSUNNY   77  68  73 S13       30.24F                  
$$
 
CTZALL-011800-
CONNECTICUT
  
CITY           SKY/WX    TMP DP  RH WIND       PRES   REMARKS
BRADLEY INTL   PTSUNNY   83  63  50 S7        30.18F                  
HARTFORD       PTSUNNY   83  64  52 SE7       30.18F                  
BRIDGEPORT     MOSUNNY   80  69  69 E9        30.20F                  
DANBURY        MOSUNNY   82  61  48 S7        30.21F                  
GROTON         PTSUNNY   75  70  84 SE12      30.22F HAZE             
NEW HAVEN      PTSUNNY   84  67  56 VRB5      30.21S                  
CHESTER        FAIR      82  68  61 SE10      30.23S                  
MERIDEN        MOSUNNY   85  62  46 S10G16    30.19F                  
WILLIMANTIC    MOSUNNY   83  64  52 S9        30.21F                  
OXFORD         MOSUNNY   81  66  61 S9        30.24F                  
$$

MEZ002-015-021-024-NHZ003-005-008-011-012-014-VTZ005-008-011800-
NORTHERN NEW ENGLAND
  
CITY           SKY/WX    TMP DP  RH WIND       PRES   REMARKS
PORTLAND ME    MOSUNNY   78  63  59 SE9       30.21F                  
BANGOR ME      PTSUNNY   79  61  53 S9        30.21F                  
CONCORD NH     MOSUNNY   78  67  68 VRB5      30.21F                  
MANCHESTER NH  MOSUNNY   80  65  59 CALM      30.18F                  
NASHUA NH      PTSUNNY   83  64  52 CALM      30.20F                  
PORTSMOUTH NH  PTSUNNY   78  68  70 SE10      30.20S                  
JAFFREY NH     MOSUNNY   78  63  59 SW7       30.23F                  
KEENE NH       MOSUNNY   81  59  47 S7        30.21S                  
BURLINGTON VT  PTSUNNY   79  61  53 VRB7      30.15S                  
MT. WASHINGTON PTSUNNY   52  46  82 SW16        N/A                   
$$

NYZ052-076-011800-
EASTERN NEW YORK
  
CITY           SKY/WX    TMP DP  RH WIND       PRES   REMARKS
ALBANY         PTSUNNY   78  65  63 SE5       30.18F                  
NEW YORK CITY  PTSUNNY   83  62  49 S14       30.18F                  
$$
 
ANZALL-011800-
MARINE OBSERVATIONS
  
STATION/POSITION TIME  TEMP    WIND        PRES    VSBY  WAVE
                       AIR SEA DIR/SP/G                  HT/PER
                 (UTC) (F)     (DEG/KT/KT) (MB)    (MI)  (FT/S)
BOSTON BUOY      NOT AVBL
BUZZARDS BAY     NOT AVBL
NANTUCKET SOUND  NOT AVBL
MASS BAY-STELLWA NOT AVBL
ISLE OF SHOALS   NOT AVBL
S OF BLOCK IS    NOT AVBL
$$

......................KEY.........................
  SKY/WX - SKY CONDITION/PRESENT WEATHER
  TMP    - TEMPERATURE IN FAHRENHEIT
  DWPT   - DEWPOINT IN FAHRENHEIT
  RH     - RELATIVE HUMIDITY IN PERCENT
  WIND   - DIRECTION AND SPEED IN MPH
  PRES   - MEAN SEA LEVEL PRESSURE IN INCHES OF HG
  WCI    - WIND CHILL INDEX
  VSB    - VISIBILITY IN MILES
  HX     - HEAT INDEX
  TC     - TEMPERATURE IN CELSIUS
  VRB    - VARIABLE WIND DIRECTION
  N/A    - NOT AVAILABLE

Return to Home page


Western Regional Climate Center, wrcc@dri.edu